{"data":{"norad_id":55283,"intl_designator":"2023-010Q","name":"STARLINK-5317","alt_names":[],"object_type":"PAYLOAD","status":"ACTIVE","operator":null,"country":"US","launch_date":"2023-01-19","launch_site_code":"AFWTR","launch_vehicle":null,"mission":null,"orbit_class":"UNKNOWN","rcs_meters":null,"size_class":null,"mass_kg":null,"dimensions":null,"purposes":["comms"],"wikipedia_slug":null,"has_3d_model":false,"image_url":null,"decayed_at":null,"tle_current":{"epoch":"2026-05-25T04:10:48.860832Z","epoch_age_seconds":63951,"freshness":"FRESH","line1":"1 55283U 23010Q   26145.17417663 -.00000264  00000+0 -14314-4 0  9992","line2":"2 55283  69.9999 211.5650 0002996 261.5191  98.5628 14.98337173184239","mean_motion":14.98337173,"eccentricity":0.0002996,"inclination_deg":69.9999,"raan_deg":211.565,"arg_perigee_deg":261.5191,"mean_anomaly_deg":98.5628,"bstar":-1.4314e-5,"rev_number":18423,"period_min":96.106539031986,"perigee_km":569.95143797766,"apogee_km":574.11598026657,"semimajor_km":6950.1707091221,"source":"CELESTRAK","updated_at":"2026-05-25T13:38:17.733258Z"}}}